Time,TemperatureF,DewpointF,PressureIn,WindDirection,WindDirectionDegrees,WindSpeedMPH,WindSpeedGustMPH,Humidity,HourlyPrecipIn,Conditions,Clouds,dailyrainin,SoftwareType,DateUTC
2013-09-09 00:01:00,68.7,66.0,29.85,NW,315,0.0,0.0,91,0.00,CLR,,0.00,WeatherDisplay:10.37,2013-09-09 04:01:00,
2013-09-09 00:02:00,68.5,65.8,29.85,NW,315,0.0,0.0,91,0.00,CLR,,0.00,WeatherDisplay:10.37,2013-09-09 04:02:00,
2013-09-09 00:03:00,68.5,65.8,29.85,NW,315,0.0,0.0,91,0.00,CLR,,0.00,WeatherDisplay:10.37,2013-09-09 04:03:00,
2013-09-09 00:08:00,68.4,65.6,29.86,NW,315,0.0,0.0,91,0.00,CLR,,0.00,WeatherDisplay:10.37,2013-09-09 04:08:00,
2013-09-09 00:13:00,68.2,65.5,29.85,NW,315,0.0,0.0,91,0.00,CLR,,0.00,WeatherDisplay:10.37,2013-09-09 04:13:00,
2013-09-09 00:18:00,68.2,65.5,29.85,NW,315,0.0,0.0,91,0.00,CLR,,0.00,WeatherDisplay:10.37,2013-09-09 04:18:00,
2013-09-09 00:23:00,68.0,65.3,29.86,NW,315,0.0,0.0,91,0.00,CLR,,0.00,WeatherDisplay:10.37,2013-09-09 04:23:00,
2013-09-09 00:28:00,67.8,65.1,29.85,NW,315,0.0,0.0,91,0.00,CLR,,0.00,WeatherDisplay:10.37,2013-09-09 04:28:00,
2013-09-09 00:33:00,67.8,65.1,29.86,NW,315,0.0,0.0,91,0.00,CLR,,0.00,WeatherDisplay:10.37,2013-09-09 04:33:00,
2013-09-09 00:38:00,67.6,64.9,29.86,NW,315,0.0,0.0,91,0.00,CLR,,0.00,WeatherDisplay:10.37,2013-09-09 04:38:00,
2013-09-09 00:43:00,67.6,64.9,29.86,NW,315,0.0,0.0,91,0.00,CLR,,0.00,WeatherDisplay:10.37,2013-09-09 04:43:00,
2013-09-09 00:48:00,67.3,64.6,29.86,NW,315,0.0,0.0,91,0.00,CLR,,0.00,WeatherDisplay:10.37,2013-09-09 04:48:00,
2013-09-09 00:53:00,66.9,64.2,29.86,NW,315,0.0,0.0,91,0.00,CLR,,0.00,WeatherDisplay:10.37,2013-09-09 04:53:00,
2013-09-09 00:58:00,66.9,64.2,29.86,NW,315,0.0,0.0,91,0.00,CLR,,0.00,WeatherDisplay:10.37,2013-09-09 04:58:00,
2013-09-09 01:03:00,66.9,64.2,29.86,NW,315,0.0,0.0,91,0.00,CLR,,0.00,WeatherDisplay:10.37,2013-09-09 05:03:00,
2013-09-09 01:08:00,66.9,64.2,29.87,NW,315,0.0,0.0,91,0.00,CLR,,0.00,WeatherDisplay:10.37,2013-09-09 05:08:00,
2013-09-09 01:13:00,66.9,64.2,29.87,NW,315,0.0,0.0,91,0.00,CLR,,0.00,WeatherDisplay:10.37,2013-09-09 05:13:00,
2013-09-09 01:18:00,66.9,64.2,29.87,NW,315,0.0,0.0,91,0.00,CLR,,0.00,WeatherDisplay:10.37,2013-09-09 05:18:00,
2013-09-09 01:23:00,66.9,64.2,29.87,NW,315,0.0,0.0,91,0.00,CLR,,0.00,WeatherDisplay:10.37,2013-09-09 05:23:00,
2013-09-09 01:28:00,66.7,64.0,29.87,NW,315,0.0,0.0,91,0.00,CLR,,0.00,WeatherDisplay:10.37,2013-09-09 05:28:00,
2013-09-09 01:33:00,66.6,63.9,29.87,NW,315,0.0,0.0,91,0.00,CLR,,0.00,WeatherDisplay:10.37,2013-09-09 05:33:00,
2013-09-09 01:38:00,66.4,63.7,29.87,NW,315,0.0,0.0,91,0.00,CLR,,0.00,WeatherDisplay:10.37,2013-09-09 05:38:00,
2013-09-09 01:43:00,66.4,63.7,29.87,NW,315,0.0,0.0,91,0.00,CLR,,0.00,WeatherDisplay:10.37,2013-09-09 05:43:00,
2013-09-09 01:48:00,66.4,63.7,29.87,NW,315,0.0,0.0,91,0.00,CLR,,0.00,WeatherDisplay:10.37,2013-09-09 05:48:00,
2013-09-09 01:53:00,66.0,63.3,29.87,NW,315,0.0,0.0,91,0.00,CLR,,0.00,WeatherDisplay:10.37,2013-09-09 05:53:00,
2013-09-09 01:58:00,66.0,63.3,29.87,NW,315,0.0,0.0,91,0.00,CLR,,0.00,WeatherDisplay:10.37,2013-09-09 05:58:00,
2013-09-09 02:03:00,66.0,63.3,29.87,NW,315,0.0,0.0,91,0.00,CLR,,0.00,WeatherDisplay:10.37,2013-09-09 06:03:00,
2013-09-09 02:08:00,65.8,63.1,29.87,NW,315,0.0,0.0,91,0.00,CLR,,0.00,WeatherDisplay:10.37,2013-09-09 06:08:00,
2013-09-09 02:13:00,65.8,63.1,29.87,NW,315,0.0,0.0,91,0.00,CLR,,0.00,WeatherDisplay:10.37,2013-09-09 06:13:00,
2013-09-09 02:18:00,65.8,63.1,29.87,NW,315,0.0,0.0,91,0.00,CLR,,0.00,WeatherDisplay:10.37,2013-09-09 06:18:00,
2013-09-09 02:23:00,65.8,63.1,29.87,NW,315,0.0,0.0,91,0.00,CLR,,0.00,WeatherDisplay:10.37,2013-09-09 06:23:00,
2013-09-09 02:28:00,65.8,63.1,29.87,NW,315,0.0,0.0,91,0.00,CLR,,0.00,WeatherDisplay:10.37,2013-09-09 06:28:00,
2013-09-09 02:33:00,65.8,63.1,29.87,NW,315,0.0,0.0,91,0.00,CLR,,0.00,WeatherDisplay:10.37,2013-09-09 06:33:00,
2013-09-09 02:38:00,65.8,63.1,29.87,NNW,338,0.0,0.0,91,0.00,CLR,,0.00,WeatherDisplay:10.37,2013-09-09 06:38:00,
2013-09-09 02:43:00,65.8,63.1,29.87,NNW,338,0.0,0.0,91,0.00,CLR,,0.00,WeatherDisplay:10.37,2013-09-09 06:43:00,
2013-09-09 02:48:00,65.5,62.8,29.87,NNW,338,0.0,0.0,91,0.00,CLR,,0.00,WeatherDisplay:10.37,2013-09-09 06:48:00,
2013-09-09 02:53:00,65.5,62.8,29.87,NNW,338,0.0,0.0,91,0.00,CLR,,0.00,WeatherDisplay:10.37,2013-09-09 06:53:00,
2013-09-09 02:58:00,65.5,62.8,29.87,NNW,338,0.0,0.0,91,0.00,CLR,,0.00,WeatherDisplay:10.37,2013-09-09 06:58:00,
2013-09-09 03:03:00,65.5,62.8,29.86,NNW,338,0.0,0.0,91,0.00,CLR,,0.00,WeatherDisplay:10.37,2013-09-09 07:03:00,
2013-09-09 03:08:00,65.7,63.0,29.87,NNW,338,0.0,0.0,91,0.00,CLR,,0.00,WeatherDisplay:10.37,2013-09-09 07:08:00,
2013-09-09 03:13:00,65.7,63.0,29.87,NNW,338,0.0,0.0,91,0.00,CLR,,0.00,WeatherDisplay:10.37,2013-09-09 07:13:00,
2013-09-09 03:18:00,65.7,63.0,29.87,NNW,338,0.0,0.0,91,0.00,CLR,,0.00,WeatherDisplay:10.37,2013-09-09 07:18:00,
2013-09-09 03:23:00,65.5,62.8,29.87,NNW,338,0.0,0.0,91,0.00,CLR,,0.00,WeatherDisplay:10.37,2013-09-09 07:23:00,
2013-09-09 03:28:00,65.5,62.8,29.87,NW,315,0.0,0.0,91,0.00,CLR,,0.00,WeatherDisplay:10.37,2013-09-09 07:28:00,
2013-09-09 03:33:00,65.5,62.8,29.87,NW,315,0.0,0.0,91,0.00,CLR,,0.00,WeatherDisplay:10.37,2013-09-09 07:33:00,
2013-09-09 03:38:00,65.7,63.0,29.87,NW,315,0.0,0.0,91,0.00,CLR,,0.00,WeatherDisplay:10.37,2013-09-09 07:38:00,
2013-09-09 03:43:00,65.8,63.1,29.87,NW,315,0.0,0.0,91,0.00,CLR,,0.00,WeatherDisplay:10.37,2013-09-09 07:43:00,
2013-09-09 03:48:00,65.8,63.1,29.87,NW,315,0.0,0.0,91,0.00,CLR,,0.00,WeatherDisplay:10.37,2013-09-09 07:48:00,
2013-09-09 03:53:00,65.8,63.1,29.87,NW,315,0.0,0.0,91,0.00,CLR,,0.00,WeatherDisplay:10.37,2013-09-09 07:53:00,
2013-09-09 03:58:00,65.8,63.1,29.88,NW,315,0.0,0.0,91,0.00,CLR,,0.00,WeatherDisplay:10.37,2013-09-09 07:58:00,
2013-09-09 04:03:00,65.8,63.1,29.88,NW,315,0.0,0.0,91,0.00,CLR,,0.00,WeatherDisplay:10.37,2013-09-09 08:03:00,
2013-09-09 04:08:00,65.8,63.1,29.88,NW,315,0.0,0.0,91,0.00,CLR,,0.00,WeatherDisplay:10.37,2013-09-09 08:08:00,
2013-09-09 04:13:00,65.8,63.1,29.88,NW,315,0.0,0.0,91,0.00,CLR,,0.00,WeatherDisplay:10.37,2013-09-09 08:13:00,
2013-09-09 04:18:00,65.8,63.1,29.88,NW,315,0.0,0.0,91,0.00,CLR,,0.00,WeatherDisplay:10.37,2013-09-09 08:18:00,
2013-09-09 04:23:00,65.8,63.1,29.88,NW,315,0.0,0.0,91,0.00,CLR,,0.00,WeatherDisplay:10.37,2013-09-09 08:23:00,
2013-09-09 04:28:00,65.8,63.1,29.88,NW,315,0.0,0.0,91,0.00,CLR,,0.00,WeatherDisplay:10.37,2013-09-09 08:28:00,
2013-09-09 04:33:00,65.8,63.1,29.88,NW,315,0.0,0.0,91,0.00,CLR,,0.00,WeatherDisplay:10.37,2013-09-09 08:33:00,
2013-09-09 04:38:00,65.8,63.1,29.88,NW,315,0.0,0.0,91,0.00,CLR,,0.00,WeatherDisplay:10.37,2013-09-09 08:38:00,
2013-09-09 04:43:00,65.8,63.1,29.88,NW,315,0.0,0.0,91,0.00,CLR,,0.00,WeatherDisplay:10.37,2013-09-09 08:43:00,
2013-09-09 04:48:00,65.7,63.0,29.88,NW,315,0.0,0.0,91,0.00,CLR,,0.00,WeatherDisplay:10.37,2013-09-09 08:48:00,
2013-09-09 04:53:00,65.7,63.0,29.88,NW,315,0.0,0.0,91,0.00,CLR,,0.00,WeatherDisplay:10.37,2013-09-09 08:53:00,
2013-09-09 04:58:00,65.5,62.8,29.89,NW,315,0.0,0.0,91,0.00,CLR,,0.00,WeatherDisplay:10.37,2013-09-09 08:58:00,
2013-09-09 05:03:00,65.5,62.8,29.89,NW,315,0.0,0.0,91,0.00,CLR,,0.00,WeatherDisplay:10.37,2013-09-09 09:03:00,
2013-09-09 05:08:00,65.5,62.8,29.88,NW,315,0.0,0.0,91,0.00,CLR,,0.00,WeatherDisplay:10.37,2013-09-09 09:08:00,
2013-09-09 05:13:00,65.5,62.8,29.88,NW,315,0.0,0.0,91,0.00,CLR,,0.00,WeatherDisplay:10.37,2013-09-09 09:13:00,
2013-09-09 05:18:00,65.5,62.8,29.88,NW,315,0.0,0.0,91,0.00,CLR,,0.00,WeatherDisplay:10.37,2013-09-09 09:18:00,
2013-09-09 05:23:00,65.3,62.6,29.89,NW,315,0.0,0.0,91,0.00,CLR,,0.00,WeatherDisplay:10.37,2013-09-09 09:23:00,
2013-09-09 05:28:00,65.3,62.6,29.89,NW,315,0.0,0.0,91,0.00,CLR,,0.00,WeatherDisplay:10.37,2013-09-09 09:28:00,
2013-09-09 05:33:00,65.3,62.6,29.89,NW,315,0.0,0.0,91,0.00,CLR,,0.00,WeatherDisplay:10.37,2013-09-09 09:33:00,
2013-09-09 05:38:00,65.1,62.4,29.89,NW,315,0.0,0.0,91,0.00,CLR,,0.00,WeatherDisplay:10.37,2013-09-09 09:38:00,
2013-09-09 05:43:00,64.9,62.2,29.89,NW,315,0.0,0.0,91,0.00,CLR,,0.00,WeatherDisplay:10.37,2013-09-09 09:43:00,
2013-09-09 05:48:00,64.9,62.2,29.89,NW,315,0.0,0.0,91,0.00,CLR,,0.00,WeatherDisplay:10.37,2013-09-09 09:48:00,
2013-09-09 05:53:00,64.8,62.1,29.89,NW,315,0.0,0.0,91,0.00,CLR,,0.00,WeatherDisplay:10.37,2013-09-09 09:53:00,
2013-09-09 05:58:00,64.8,62.1,29.89,NW,315,0.0,0.0,91,0.00,CLR,,0.00,WeatherDisplay:10.37,2013-09-09 09:58:00,
2013-09-09 06:03:00,64.6,61.9,29.89,NW,315,0.0,0.0,91,0.00,CLR,,0.00,WeatherDisplay:10.37,2013-09-09 10:03:00,
2013-09-09 06:08:00,64.6,61.9,29.90,NW,315,0.0,0.0,91,0.00,CLR,,0.00,WeatherDisplay:10.37,2013-09-09 10:08:00,
2013-09-09 06:13:00,64.6,61.9,29.90,NW,315,0.0,0.0,91,0.00,CLR,,0.00,WeatherDisplay:10.37,2013-09-09 10:13:00,
2013-09-09 06:18:00,64.4,61.7,29.90,NW,315,0.0,0.0,91,0.00,CLR,,0.00,WeatherDisplay:10.37,2013-09-09 10:18:00,
2013-09-09 06:23:00,64.4,61.7,29.90,NW,315,0.0,0.0,91,0.00,CLR,,0.00,WeatherDisplay:10.37,2013-09-09 10:23:00,
2013-09-09 06:28:00,64.4,61.7,29.90,NW,315,0.0,0.0,91,0.00,CLR,,0.00,WeatherDisplay:10.37,2013-09-09 10:28:00,
2013-09-09 06:33:00,64.6,61.9,29.91,NW,315,0.0,0.0,91,0.00,CLR,,0.00,WeatherDisplay:10.37,2013-09-09 10:33:00,
2013-09-09 06:38:00,64.4,61.7,29.91,NE,45,0.0,0.0,91,0.00,CLR,,0.00,WeatherDisplay:10.37,2013-09-09 10:38:00,
2013-09-09 06:43:00,64.2,61.5,29.91,NE,45,0.0,0.0,91,0.00,CLR,,0.00,WeatherDisplay:10.37,2013-09-09 10:43:00,
2013-09-09 06:48:00,64.0,61.4,29.92,NE,45,0.0,0.0,91,0.00,CLR,,0.00,WeatherDisplay:10.37,2013-09-09 10:48:00,
2013-09-09 06:53:00,64.0,61.4,29.92,NE,45,0.0,0.0,91,0.00,CLR,,0.00,WeatherDisplay:10.37,2013-09-09 10:53:00,
2013-09-09 06:58:00,63.7,61.0,29.92,NE,45,0.0,0.0,91,0.00,CLR,,0.00,WeatherDisplay:10.37,2013-09-09 10:58:00,
2013-09-09 07:03:00,63.5,60.8,29.92,NE,45,0.0,0.0,91,0.00,CLR,,0.00,WeatherDisplay:10.37,2013-09-09 11:03:00,
2013-09-09 07:08:00,63.3,60.6,29.92,NE,45,0.0,0.0,91,0.00,CLR,,0.00,WeatherDisplay:10.37,2013-09-09 11:08:00,
2013-09-09 07:13:00,63.3,60.6,29.92,NE,45,0.0,0.0,91,0.00,CLR,,0.00,WeatherDisplay:10.37,2013-09-09 11:13:00,
2013-09-09 07:18:00,63.3,60.6,29.92,NE,45,0.0,0.0,91,0.00,CLR,,0.00,WeatherDisplay:10.37,2013-09-09 11:18:00,
2013-09-09 07:23:00,63.3,60.6,29.92,NE,45,0.0,0.0,91,0.00,CLR,,0.00,WeatherDisplay:10.37,2013-09-09 11:23:00,
2013-09-09 07:28:00,63.5,60.8,29.92,NE,45,0.0,0.0,91,0.00,CLR,,0.00,WeatherDisplay:10.37,2013-09-09 11:28:00,
2013-09-09 07:33:00,63.5,60.8,29.92,NE,45,0.0,0.0,91,0.00,CLR,,0.00,WeatherDisplay:10.37,2013-09-09 11:33:00,
2013-09-09 07:38:00,64.0,61.4,29.93,NE,45,0.0,0.0,91,0.00,CLR,,0.00,WeatherDisplay:10.37,2013-09-09 11:38:00,
2013-09-09 07:43:00,64.2,61.5,29.93,NE,45,0.0,0.0,91,0.00,CLR,,0.00,WeatherDisplay:10.37,2013-09-09 11:43:00,
2013-09-09 07:48:00,64.2,61.5,29.93,NE,45,0.0,0.0,91,0.00,CLR,,0.00,WeatherDisplay:10.37,2013-09-09 11:48:00,
2013-09-09 07:53:00,64.6,61.9,29.93,NE,45,0.0,0.0,91,0.00,CLR,,0.00,WeatherDisplay:10.37,2013-09-09 11:53:00,
2013-09-09 07:58:00,64.6,61.9,29.93,NE,45,0.0,0.0,91,0.00,CLR,,0.00,WeatherDisplay:10.37,2013-09-09 11:58:00,
2013-09-09 08:03:00,64.9,62.2,29.93,NE,45,0.0,0.0,91,0.00,CLR,,0.00,WeatherDisplay:10.37,2013-09-09 12:03:00,
2013-09-09 08:08:00,65.1,62.4,29.93,NE,45,0.0,0.0,91,0.00,CLR,,0.00,WeatherDisplay:10.37,2013-09-09 12:08:00,
2013-09-09 08:13:00,65.1,62.4,29.93,NE,45,0.0,0.0,91,0.00,CLR,,0.00,WeatherDisplay:10.37,2013-09-09 12:13:00,
2013-09-09 08:18:00,65.3,62.6,29.93,NE,45,0.0,0.0,91,0.00,CLR,,0.00,WeatherDisplay:10.37,2013-09-09 12:18:00,
2013-09-09 08:24:00,65.7,63.0,29.94,NE,45,0.0,0.0,91,0.00,CLR,,0.00,WeatherDisplay:10.37,2013-09-09 12:24:00,
2013-09-09 08:29:00,65.8,63.1,29.94,NE,45,0.0,0.0,91,0.00,CLR,,0.00,WeatherDisplay:10.37,2013-09-09 12:29:00,
2013-09-09 08:34:00,66.4,63.7,29.94,NE,45,0.0,0.0,91,0.00,CLR,,0.00,WeatherDisplay:10.37,2013-09-09 12:34:00,
2013-09-09 08:39:00,66.4,63.7,29.94,SE,135,0.0,0.0,91,0.00,CLR,,0.00,WeatherDisplay:10.37,2013-09-09 12:39:00,
2013-09-09 08:44:00,66.6,63.9,29.94,SE,135,0.0,0.0,91,0.00,CLR,,0.00,WeatherDisplay:10.37,2013-09-09 12:44:00,
2013-09-09 08:49:00,66.6,63.9,29.95,SE,135,0.0,0.0,91,0.00,CLR,,0.00,WeatherDisplay:10.37,2013-09-09 12:49:00,
2013-09-09 08:54:00,66.6,63.9,29.95,SE,135,0.0,0.0,91,0.00,CLR,,0.00,WeatherDisplay:10.37,2013-09-09 12:54:00,
2013-09-09 08:59:00,66.7,64.0,29.95,SE,135,0.0,0.0,91,0.00,CLR,,0.00,WeatherDisplay:10.37,2013-09-09 12:59:00,
2013-09-09 09:04:00,67.3,64.6,29.95,SE,135,0.0,0.0,91,0.00,CLR,,0.00,WeatherDisplay:10.37,2013-09-09 13:04:00,
2013-09-09 09:09:00,67.3,64.6,29.95,SE,135,0.0,0.0,91,0.00,CLR,,0.00,WeatherDisplay:10.37,2013-09-09 13:09:00,
2013-09-09 09:14:00,67.8,65.1,29.95,SE,135,0.0,0.0,91,0.00,CLR,,0.00,WeatherDisplay:10.37,2013-09-09 13:14:00,
2013-09-09 09:19:00,68.4,65.9,29.95,SE,135,0.0,0.0,92,0.00,CLR,,0.00,WeatherDisplay:10.37,2013-09-09 13:19:00,
2013-09-09 09:24:00,68.7,66.0,29.95,SE,135,0.0,0.0,91,0.00,CLR,,0.00,WeatherDisplay:10.37,2013-09-09 13:24:00,
2013-09-09 09:29:00,69.1,66.3,29.95,SE,135,0.0,0.0,91,0.00,CLR,,0.00,WeatherDisplay:10.37,2013-09-09 13:29:00,
2013-09-09 09:34:00,69.4,66.7,29.96,SE,135,0.0,0.0,91,0.00,CLR,,0.00,WeatherDisplay:10.37,2013-09-09 13:34:00,
2013-09-09 09:39:00,69.8,67.1,29.96,ESE,112,0.0,0.0,91,0.00,CLR,,0.00,WeatherDisplay:10.37,2013-09-09 13:39:00,
2013-09-09 09:44:00,70.3,67.6,29.96,SE,135,0.0,0.0,91,0.00,CLR,,0.00,WeatherDisplay:10.37,2013-09-09 13:44:00,
2013-09-09 09:49:00,70.7,67.6,29.96,SE,135,0.0,0.0,90,0.00,CLR,,0.00,WeatherDisplay:10.37,2013-09-09 13:49:00,
2013-09-09 09:54:00,71.2,68.2,29.96,NE,45,0.0,0.0,90,0.00,CLR,,0.00,WeatherDisplay:10.37,2013-09-09 13:54:00,
2013-09-09 09:59:00,71.4,68.0,29.96,NE,45,0.0,0.0,89,0.00,CLR,,0.00,WeatherDisplay:10.37,2013-09-09 13:59:00,
2013-09-09 10:04:00,71.4,67.7,29.96,NE,45,0.0,0.0,88,0.00,CLR,,0.00,WeatherDisplay:10.37,2013-09-09 14:04:00,
2013-09-09 10:09:00,71.6,67.5,29.97,NE,45,0.0,0.0,87,0.00,CLR,,0.00,WeatherDisplay:10.37,2013-09-09 14:09:00,
2013-09-09 10:14:00,72.1,67.7,29.97,ESE,112,0.0,0.0,86,0.00,CLR,,0.00,WeatherDisplay:10.37,2013-09-09 14:14:00,
2013-09-09 10:19:00,72.3,67.9,29.97,ENE,68,0.0,0.0,86,0.00,CLR,,0.00,WeatherDisplay:10.37,2013-09-09 14:19:00,
2013-09-09 10:24:00,73.0,68.3,29.97,ENE,68,0.0,0.0,85,0.00,CLR,,0.00,WeatherDisplay:10.37,2013-09-09 14:24:00,
2013-09-09 10:29:00,73.0,68.3,29.97,ENE,68,0.0,0.0,85,0.00,CLR,,0.00,WeatherDisplay:10.37,2013-09-09 14:29:00,
2013-09-09 10:34:00,73.2,68.1,29.97,ENE,68,0.0,0.0,84,0.00,CLR,,0.00,WeatherDisplay:10.37,2013-09-09 14:34:00,
2013-09-09 10:39:00,73.6,68.4,29.97,SW,225,0.0,0.0,84,0.00,CLR,,0.00,WeatherDisplay:10.37,2013-09-09 14:39:00,
2013-09-09 10:44:00,73.9,68.8,29.98,NE,45,0.0,0.0,84,0.00,CLR,,0.00,WeatherDisplay:10.37,2013-09-09 14:44:00,
2013-09-09 10:49:00,74.3,69.1,29.97,ENE,68,0.0,0.0,84,0.00,CLR,,0.00,WeatherDisplay:10.37,2013-09-09 14:49:00,
2013-09-09 10:54:00,74.5,69.3,29.97,ENE,68,0.0,0.0,84,0.00,CLR,,0.00,WeatherDisplay:10.37,2013-09-09 14:54:00,
2013-09-09 10:59:00,74.5,69.0,29.97,ENE,68,0.0,0.0,83,0.00,CLR,,0.00,WeatherDisplay:10.37,2013-09-09 14:59:00,
2013-09-09 11:04:00,74.3,68.8,29.97,NE,45,0.0,0.0,83,0.00,CLR,,0.00,WeatherDisplay:10.37,2013-09-09 15:04:00,
2013-09-09 11:09:00,74.8,69.3,29.98,NE,45,0.0,0.0,83,0.00,CLR,,0.00,WeatherDisplay:10.37,2013-09-09 15:09:00,
2013-09-09 11:14:00,74.8,69.0,29.98,NE,45,0.0,0.0,82,0.00,CLR,,0.00,WeatherDisplay:10.37,2013-09-09 15:14:00,
2013-09-09 11:19:00,75.0,69.5,29.98,ESE,112,0.0,0.0,83,0.00,CLR,,0.00,WeatherDisplay:10.37,2013-09-09 15:19:00,
2013-09-09 11:24:00,75.2,69.0,29.98,SE,135,0.0,0.0,81,0.00,CLR,,0.00,WeatherDisplay:10.37,2013-09-09 15:24:00,
2013-09-09 11:29:00,75.4,69.1,29.98,West,270,0.0,0.0,81,0.00,CLR,,0.00,WeatherDisplay:10.37,2013-09-09 15:29:00,
2013-09-09 11:34:00,76.3,70.4,29.98,South,180,0.0,0.0,82,0.00,CLR,,0.00,WeatherDisplay:10.37,2013-09-09 15:34:00,
2013-09-09 11:39:00,77.4,70.7,29.98,SSE,158,0.0,0.0,80,0.00,CLR,,0.00,WeatherDisplay:10.37,2013-09-09 15:39:00,
2013-09-09 11:44:00,77.7,70.3,29.98,NE,45,0.0,0.0,78,0.00,CLR,,0.00,WeatherDisplay:10.37,2013-09-09 15:44:00,
2013-09-09 11:49:00,77.9,70.1,29.98,ENE,68,0.0,0.0,77,0.00,CLR,,0.00,WeatherDisplay:10.37,2013-09-09 15:49:00,
2013-09-09 11:54:00,77.9,70.5,29.98,NE,45,0.0,0.0,78,0.00,CLR,,0.00,WeatherDisplay:10.37,2013-09-09 15:54:00,
2013-09-09 11:59:00,78.1,70.3,29.98,ENE,68,0.0,0.0,77,0.00,CLR,,0.00,WeatherDisplay:10.37,2013-09-09 15:59:00,
2013-09-09 12:04:00,78.1,70.3,29.98,NE,45,0.0,0.0,77,0.00,CLR,,0.00,WeatherDisplay:10.37,2013-09-09 16:04:00,
2013-09-09 12:09:00,78.4,70.6,29.98,SSE,158,0.0,0.0,77,0.00,CLR,,0.00,WeatherDisplay:10.37,2013-09-09 16:09:00,
2013-09-09 12:14:00,78.6,70.8,29.98,ENE,68,0.0,0.0,77,0.00,CLR,,0.00,WeatherDisplay:10.37,2013-09-09 16:14:00,
2013-09-09 12:19:00,78.6,70.0,29.98,ESE,112,0.0,0.0,75,0.00,CLR,,0.00,WeatherDisplay:10.37,2013-09-09 16:19:00,
2013-09-09 12:24:00,78.8,70.2,29.97,ENE,68,0.0,0.0,75,0.00,CLR,,0.00,WeatherDisplay:10.37,2013-09-09 16:24:00,
2013-09-09 12:29:00,79.3,70.7,29.98,SE,135,0.0,0.0,75,0.00,CLR,,0.00,WeatherDisplay:10.37,2013-09-09 16:29:00,
2013-09-09 12:34:00,79.9,70.8,29.97,SE,135,0.0,0.0,74,0.00,CLR,,0.00,WeatherDisplay:10.37,2013-09-09 16:34:00,
2013-09-09 12:39:00,80.2,70.8,29.98,SE,135,0.0,0.0,73,0.00,CLR,,0.00,WeatherDisplay:10.37,2013-09-09 16:39:00,
2013-09-09 12:44:00,80.4,71.0,29.97,ENE,68,0.0,0.0,73,0.00,CLR,,0.00,WeatherDisplay:10.37,2013-09-09 16:44:00,
2013-09-09 12:49:00,80.4,71.0,29.97,ENE,68,0.0,0.0,73,0.00,CLR,,0.00,WeatherDisplay:10.37,2013-09-09 16:49:00,
2013-09-09 12:54:00,79.9,70.4,29.97,WSW,248,0.0,0.0,73,0.00,CLR,,0.00,WeatherDisplay:10.37,2013-09-09 16:54:00,
2013-09-09 12:59:00,80.2,71.2,29.98,SW,225,0.0,0.0,74,0.00,CLR,,0.00,WeatherDisplay:10.37,2013-09-09 16:59:00,
2013-09-09 13:04:00,80.4,71.0,29.97,SSE,158,0.0,0.0,73,0.00,CLR,,0.00,WeatherDisplay:10.37,2013-09-09 17:04:00,
2013-09-09 13:09:00,80.4,71.0,29.97,ENE,68,0.0,0.0,73,0.00,CLR,,0.00,WeatherDisplay:10.37,2013-09-09 17:09:00,
2013-09-09 13:14:00,80.2,70.4,29.97,ENE,68,0.0,0.0,72,0.00,CLR,,0.00,WeatherDisplay:10.37,2013-09-09 17:14:00,
2013-09-09 13:19:00,80.4,70.6,29.97,East,90,0.0,0.0,72,0.00,CLR,,0.00,WeatherDisplay:10.37,2013-09-09 17:19:00,
2013-09-09 13:24:00,80.4,70.2,29.97,SSE,158,0.0,0.0,71,0.00,CLR,,0.00,WeatherDisplay:10.37,2013-09-09 17:24:00,
2013-09-09 13:29:00,79.9,69.6,29.97,SSE,158,0.0,0.0,71,0.00,CLR,,0.00,WeatherDisplay:10.37,2013-09-09 17:29:00,
2013-09-09 13:34:00,80.4,69.7,29.97,SE,135,0.0,0.0,70,0.00,CLR,,0.00,WeatherDisplay:10.37,2013-09-09 17:34:00,
2013-09-09 13:39:00,80.4,70.2,29.97,SSE,158,0.0,0.0,71,0.00,CLR,,0.00,WeatherDisplay:10.37,2013-09-09 17:39:00,
2013-09-09 13:44:00,80.4,70.2,29.97,WSW,248,0.0,0.0,71,0.00,CLR,,0.00,WeatherDisplay:10.37,2013-09-09 17:44:00,
2013-09-09 13:49:00,80.8,70.1,29.97,ESE,112,0.0,0.0,70,0.00,CLR,,0.00,WeatherDisplay:10.37,2013-09-09 17:49:00,
2013-09-09 13:54:00,80.8,69.7,29.98,SE,135,0.0,0.0,69,0.00,CLR,,0.00,WeatherDisplay:10.37,2013-09-09 17:54:00,
2013-09-09 13:59:00,80.4,70.2,29.97,SE,135,0.0,0.0,71,0.00,CLR,,0.00,WeatherDisplay:10.37,2013-09-09 17:59:00,
2013-09-09 14:04:00,80.8,70.5,29.97,ESE,112,0.0,0.0,71,0.00,CLR,,0.00,WeatherDisplay:10.37,2013-09-09 18:04:00,
2013-09-09 14:09:00,81.7,71.4,29.97,NE,45,0.0,0.0,71,0.00,CLR,,0.00,WeatherDisplay:10.37,2013-09-09 18:09:00,
2013-09-09 14:14:00,82.0,70.9,29.97,East,90,0.0,0.0,69,0.00,CLR,,0.00,WeatherDisplay:10.37,2013-09-09 18:14:00,
2013-09-09 14:19:00,81.7,70.5,29.97,West,270,0.0,0.0,69,0.00,CLR,,0.00,WeatherDisplay:10.37,2013-09-09 18:19:00,
2013-09-09 14:24:00,81.9,70.7,29.97,East,90,0.0,0.0,69,0.00,CLR,,0.00,WeatherDisplay:10.37,2013-09-09 18:24:00,
2013-09-09 14:29:00,82.0,70.9,29.97,SE,135,0.0,0.0,69,0.00,CLR,,0.00,WeatherDisplay:10.37,2013-09-09 18:29:00,
2013-09-09 14:34:00,81.9,70.3,29.97,SSW,202,0.0,0.0,68,0.00,CLR,,0.00,WeatherDisplay:10.37,2013-09-09 18:34:00,
2013-09-09 14:39:00,82.0,70.9,29.97,ESE,112,0.0,0.0,69,0.00,CLR,,0.00,WeatherDisplay:10.37,2013-09-09 18:39:00,
2013-09-09 14:44:00,82.8,70.2,29.97,SE,135,0.0,0.0,66,0.00,CLR,,0.00,WeatherDisplay:10.37,2013-09-09 18:44:00,
2013-09-09 14:49:00,82.0,70.4,29.96,SE,135,0.0,0.0,68,0.00,CLR,,0.00,WeatherDisplay:10.37,2013-09-09 18:49:00,
2013-09-09 14:54:00,82.2,71.0,29.96,SSW,202,0.0,0.0,69,0.00,CLR,,0.00,WeatherDisplay:10.37,2013-09-09 18:54:00,
2013-09-09 14:59:00,82.9,70.4,29.96,ESE,112,0.0,0.0,66,0.00,CLR,,0.00,WeatherDisplay:10.37,2013-09-09 18:59:00,
2013-09-09 15:04:00,82.8,69.8,29.96,SSW,202,0.0,0.0,65,0.00,CLR,,0.00,WeatherDisplay:10.37,2013-09-09 19:04:00,
2013-09-09 15:09:00,82.8,70.2,29.95,SW,225,0.0,0.0,66,0.00,CLR,,0.00,WeatherDisplay:10.37,2013-09-09 19:09:00,
2013-09-09 15:14:00,82.9,70.9,29.95,South,180,0.0,0.0,67,0.00,CLR,,0.00,WeatherDisplay:10.37,2013-09-09 19:14:00,
2013-09-09 15:19:00,83.5,70.9,29.95,NNW,338,0.0,0.0,66,0.00,CLR,,0.00,WeatherDisplay:10.37,2013-09-09 19:19:00,
2013-09-09 15:24:00,83.5,70.5,29.95,West,270,0.0,0.0,65,0.00,CLR,,0.00,WeatherDisplay:10.37,2013-09-09 19:24:00,
2013-09-09 15:29:00,83.5,70.9,29.95,SSW,202,0.0,0.0,66,0.00,CLR,,0.00,WeatherDisplay:10.37,2013-09-09 19:29:00,
2013-09-09 15:34:00,83.3,69.8,29.95,South,180,0.0,0.0,64,0.00,CLR,,0.00,WeatherDisplay:10.37,2013-09-09 19:34:00,
2013-09-09 15:39:00,82.9,69.0,29.94,SSW,202,0.0,0.0,63,0.00,CLR,,0.00,WeatherDisplay:10.37,2013-09-09 19:39:00,
2013-09-09 15:44:00,82.9,69.5,29.95,SE,135,0.0,0.0,64,0.00,CLR,,0.00,WeatherDisplay:10.37,2013-09-09 19:44:00,
2013-09-09 15:49:00,82.9,70.0,29.94,SE,135,0.0,0.0,65,0.00,CLR,,0.00,WeatherDisplay:10.37,2013-09-09 19:49:00,
2013-09-09 15:54:00,82.9,69.5,29.94,WSW,248,0.0,0.0,64,0.00,CLR,,0.00,WeatherDisplay:10.37,2013-09-09 19:54:00,
2013-09-09 15:59:00,83.1,69.7,29.95,SSW,202,0.0,0.0,64,0.00,CLR,,0.00,WeatherDisplay:10.37,2013-09-09 19:59:00,
2013-09-09 16:04:00,83.1,70.6,29.94,SE,135,0.0,0.0,66,0.00,CLR,,0.00,WeatherDisplay:10.37,2013-09-09 20:04:00,
2013-09-09 16:09:00,83.3,69.8,29.94,ESE,112,0.0,0.0,64,0.00,CLR,,0.00,WeatherDisplay:10.37,2013-09-09 20:09:00,
2013-09-09 16:14:00,83.1,69.7,29.95,ESE,112,0.0,0.0,64,0.00,CLR,,0.00,WeatherDisplay:10.37,2013-09-09 20:14:00,
2013-09-09 16:19:00,83.1,69.2,29.95,SE,135,0.0,0.0,63,0.00,CLR,,0.00,WeatherDisplay:10.37,2013-09-09 20:19:00,
2013-09-09 16:24:00,83.1,69.2,29.95,SE,135,0.0,0.0,63,0.00,CLR,,0.00,WeatherDisplay:10.37,2013-09-09 20:24:00,
2013-09-09 16:29:00,83.3,70.3,29.94,South,180,0.0,0.0,65,0.00,CLR,,0.00,WeatherDisplay:10.37,2013-09-09 20:29:00,
2013-09-09 16:34:00,83.3,69.8,29.94,SSW,202,0.0,0.0,64,0.00,CLR,,0.00,WeatherDisplay:10.37,2013-09-09 20:34:00,
2013-09-09 16:39:00,83.1,70.1,29.94,SW,225,0.0,0.0,65,0.00,CLR,,0.00,WeatherDisplay:10.37,2013-09-09 20:39:00,
2013-09-09 16:44:00,83.5,70.5,29.94,SSW,202,0.0,0.0,65,0.00,CLR,,0.00,WeatherDisplay:10.37,2013-09-09 20:44:00,
2013-09-09 16:49:00,83.3,69.4,29.94,North,0,0.0,0.0,63,0.00,CLR,,0.00,WeatherDisplay:10.37,2013-09-09 20:49:00,
2013-09-09 16:54:00,83.3,69.4,29.94,North,0,0.0,0.0,63,0.00,CLR,,0.00,WeatherDisplay:10.37,2013-09-09 20:54:00,
2013-09-09 16:59:00,83.3,69.4,29.94,North,0,0.0,0.0,63,0.00,CLR,,0.00,WeatherDisplay:10.37,2013-09-09 20:59:00,
2013-09-09 17:04:00,83.3,69.4,29.94,North,0,0.0,0.0,63,0.00,CLR,,0.00,WeatherDisplay:10.37,2013-09-09 21:04:00,
2013-09-09 17:09:00,83.3,69.4,29.94,North,0,0.0,0.0,63,0.00,CLR,,0.00,WeatherDisplay:10.37,2013-09-09 21:09:00,
2013-09-09 17:14:00,82.2,69.7,29.94,SSW,202,0.0,0.0,66,0.00,CLR,,0.00,WeatherDisplay:10.37,2013-09-09 21:14:00,
2013-09-09 17:19:00,82.2,69.7,29.94,East,90,0.0,0.0,66,0.00,CLR,,0.00,WeatherDisplay:10.37,2013-09-09 21:19:00,
2013-09-09 17:24:00,82.0,70.0,29.93,East,90,0.0,0.0,67,0.00,CLR,,0.00,WeatherDisplay:10.37,2013-09-09 21:24:00,
2013-09-09 17:29:00,82.0,69.6,29.93,WSW,248,0.0,0.0,66,0.00,CLR,,0.00,WeatherDisplay:10.37,2013-09-09 21:29:00,
2013-09-09 17:34:00,81.7,70.1,29.94,WSW,248,0.0,0.0,68,0.00,CLR,,0.00,WeatherDisplay:10.37,2013-09-09 21:34:00,
2013-09-09 17:39:00,81.5,69.9,29.94,WSW,248,0.0,0.0,68,0.00,CLR,,0.00,WeatherDisplay:10.37,2013-09-09 21:39:00,
2013-09-09 17:44:00,81.0,69.4,29.94,WSW,248,0.0,0.0,68,0.00,CLR,,0.00,WeatherDisplay:10.37,2013-09-09 21:44:00,
2013-09-09 17:49:00,80.8,69.7,29.94,SW,225,0.0,0.0,69,0.00,CLR,,0.00,WeatherDisplay:10.37,2013-09-09 21:49:00,
2013-09-09 17:54:00,80.8,69.7,29.94,SSE,158,0.0,0.0,69,0.00,CLR,,0.00,WeatherDisplay:10.37,2013-09-09 21:54:00,
2013-09-09 17:59:00,80.6,69.9,29.94,SE,135,0.0,0.0,70,0.00,CLR,,0.00,WeatherDisplay:10.37,2013-09-09 21:59:00,
2013-09-09 18:04:00,80.4,69.3,29.94,SSW,202,0.0,0.0,69,0.00,CLR,,0.00,WeatherDisplay:10.37,2013-09-09 22:04:00,
2013-09-09 18:09:00,80.4,69.7,29.94,SSW,202,0.0,0.0,70,0.00,CLR,,0.00,WeatherDisplay:10.37,2013-09-09 22:09:00,
2013-09-09 18:14:00,80.2,69.1,29.94,SSW,202,0.0,0.0,69,0.00,CLR,,0.00,WeatherDisplay:10.37,2013-09-09 22:14:00,
2013-09-09 18:19:00,80.2,69.6,29.94,SSW,202,0.0,0.0,70,0.00,CLR,,0.00,WeatherDisplay:10.37,2013-09-09 22:19:00,
2013-09-09 18:24:00,80.1,69.4,29.94,SSW,202,0.0,0.0,70,0.00,CLR,,0.00,WeatherDisplay:10.37,2013-09-09 22:24:00,
2013-09-09 18:29:00,79.9,69.2,29.94,SSW,202,0.0,0.0,70,0.00,CLR,,0.00,WeatherDisplay:10.37,2013-09-09 22:29:00,
2013-09-09 18:34:00,79.7,69.5,29.94,SSE,158,0.0,0.0,71,0.00,CLR,,0.00,WeatherDisplay:10.37,2013-09-09 22:34:00,
2013-09-09 18:39:00,79.7,69.5,29.94,SSE,158,0.0,0.0,71,0.00,CLR,,0.00,WeatherDisplay:10.37,2013-09-09 22:39:00,
2013-09-09 18:44:00,79.5,69.3,29.93,SSE,158,0.0,0.0,71,0.00,CLR,,0.00,WeatherDisplay:10.37,2013-09-09 22:44:00,
2013-09-09 18:49:00,79.2,68.9,29.93,SE,135,0.0,0.0,71,0.00,CLR,,0.00,WeatherDisplay:10.37,2013-09-09 22:49:00,
2013-09-09 18:54:00,79.2,68.9,29.93,SE,135,0.0,0.0,71,0.00,CLR,,0.00,WeatherDisplay:10.37,2013-09-09 22:54:00,
2013-09-09 18:59:00,78.8,68.6,29.94,SE,135,0.0,0.0,71,0.00,CLR,,0.00,WeatherDisplay:10.37,2013-09-09 22:59:00,
2013-09-09 19:04:00,78.6,68.4,29.94,ESE,112,0.0,0.0,71,0.00,CLR,,0.00,WeatherDisplay:10.37,2013-09-09 23:04:00,
2013-09-09 19:09:00,78.6,68.4,29.94,ESE,112,0.0,0.0,71,0.00,CLR,,0.00,WeatherDisplay:10.37,2013-09-09 23:09:00,
2013-09-09 19:14:00,78.3,68.5,29.94,ESE,112,0.0,0.0,72,0.00,CLR,,0.00,WeatherDisplay:10.37,2013-09-09 23:14:00,
2013-09-09 19:19:00,78.3,68.5,29.94,ESE,112,0.0,0.0,72,0.00,CLR,,0.00,WeatherDisplay:10.37,2013-09-09 23:19:00,
2013-09-09 19:24:00,77.7,68.0,29.95,East,90,0.0,0.0,72,0.00,CLR,,0.00,WeatherDisplay:10.37,2013-09-09 23:24:00,
2013-09-09 19:30:00,77.7,68.0,29.95,East,90,0.0,0.0,72,0.00,CLR,,0.00,WeatherDisplay:10.37,2013-09-09 23:30:00,
2013-09-09 19:35:00,77.5,67.8,29.95,East,90,0.0,0.0,72,0.00,CLR,,0.00,WeatherDisplay:10.37,2013-09-09 23:35:00,
2013-09-09 19:40:00,77.4,67.6,29.95,East,90,0.0,0.0,72,0.00,CLR,,0.00,WeatherDisplay:10.37,2013-09-09 23:40:00,
2013-09-09 19:45:00,77.4,67.6,29.95,East,90,0.0,0.0,72,0.00,CLR,,0.00,WeatherDisplay:10.37,2013-09-09 23:45:00,
2013-09-09 19:50:00,76.3,67.8,29.95,East,90,0.0,0.0,75,0.00,CLR,,0.00,WeatherDisplay:10.37,2013-09-09 23:50:00,
2013-09-09 19:55:00,75.9,67.8,29.95,East,90,0.0,0.0,76,0.00,CLR,,0.00,WeatherDisplay:10.37,2013-09-09 23:55:00,
2013-09-09 20:00:00,75.6,67.8,29.95,East,90,0.0,0.0,77,0.00,CLR,,0.00,WeatherDisplay:10.37,2013-09-10 00:00:00,
2013-09-09 20:05:00,75.0,67.3,29.95,East,90,0.0,0.0,77,0.00,CLR,,0.00,WeatherDisplay:10.37,2013-09-10 00:05:00,
2013-09-09 20:10:00,75.0,68.1,29.95,East,90,0.0,0.0,79,0.00,CLR,,0.00,WeatherDisplay:10.37,2013-09-10 00:10:00,
2013-09-09 20:15:00,74.8,68.3,29.96,East,90,0.0,0.0,80,0.00,CLR,,0.00,WeatherDisplay:10.37,2013-09-10 00:15:00,
2013-09-09 20:20:00,74.8,68.3,29.96,East,90,0.0,0.0,80,0.00,CLR,,0.00,WeatherDisplay:10.37,2013-09-10 00:20:00,
2013-09-09 20:25:00,74.5,68.3,29.96,East,90,0.0,0.0,81,0.00,CLR,,0.00,WeatherDisplay:10.37,2013-09-10 00:25:00,
2013-09-09 20:30:00,74.3,68.1,29.96,East,90,0.0,0.0,81,0.00,CLR,,0.00,WeatherDisplay:10.37,2013-09-10 00:30:00,
2013-09-09 20:35:00,74.1,67.9,29.96,East,90,0.0,0.0,81,0.00,CLR,,0.00,WeatherDisplay:10.37,2013-09-10 00:35:00,
2013-09-09 20:40:00,73.9,67.7,29.97,East,90,0.0,0.0,81,0.00,CLR,,0.00,WeatherDisplay:10.37,2013-09-10 00:40:00,
2013-09-09 20:45:00,73.8,67.9,29.96,East,90,0.0,0.0,82,0.00,CLR,,0.00,WeatherDisplay:10.37,2013-09-10 00:45:00,
2013-09-09 20:50:00,73.6,68.1,29.96,NE,45,0.0,0.0,83,0.00,CLR,,0.00,WeatherDisplay:10.37,2013-09-10 00:50:00,
2013-09-09 20:55:00,73.0,67.9,29.97,NE,45,0.0,0.0,84,0.00,CLR,,0.00,WeatherDisplay:10.37,2013-09-10 00:55:00,
2013-09-09 21:00:00,72.7,67.6,29.97,NE,45,0.0,0.0,84,0.00,CLR,,0.00,WeatherDisplay:10.37,2013-09-10 01:00:00,
2013-09-09 21:05:00,72.5,67.7,29.97,NE,45,0.0,0.0,85,0.00,CLR,,0.00,WeatherDisplay:10.37,2013-09-10 01:05:00,
2013-09-09 21:10:00,72.3,67.6,29.97,NE,45,0.0,0.0,85,0.00,CLR,,0.00,WeatherDisplay:10.37,2013-09-10 01:10:00,
2013-09-09 21:15:00,72.3,67.9,29.97,NE,45,0.0,0.0,86,0.00,CLR,,0.00,WeatherDisplay:10.37,2013-09-10 01:15:00,
2013-09-09 21:20:00,72.3,67.9,29.97,NE,45,0.0,0.0,86,0.00,CLR,,0.00,WeatherDisplay:10.37,2013-09-10 01:20:00,
2013-09-09 21:25:00,72.3,67.9,29.97,NE,45,0.0,0.0,86,0.00,CLR,,0.00,WeatherDisplay:10.37,2013-09-10 01:25:00,
2013-09-09 21:30:00,72.1,67.7,29.97,ENE,68,0.0,0.0,86,0.00,CLR,,0.00,WeatherDisplay:10.37,2013-09-10 01:30:00,
2013-09-09 21:35:00,72.0,67.5,29.97,ENE,68,0.0,0.0,86,0.00,CLR,,0.00,WeatherDisplay:10.37,2013-09-10 01:35:00,
2013-09-09 21:40:00,71.8,67.7,29.98,ENE,68,0.0,0.0,87,0.00,CLR,,0.00,WeatherDisplay:10.37,2013-09-10 01:40:00,
2013-09-09 21:45:00,71.6,67.5,29.97,ENE,68,0.0,0.0,87,0.00,CLR,,0.00,WeatherDisplay:10.37,2013-09-10 01:45:00,
2013-09-09 21:50:00,71.2,67.2,29.97,ENE,68,0.0,0.0,87,0.00,CLR,,0.00,WeatherDisplay:10.37,2013-09-10 01:50:00,
2013-09-09 21:55:00,71.2,67.5,29.97,ENE,68,0.0,0.0,88,0.00,CLR,,0.00,WeatherDisplay:10.37,2013-09-10 01:55:00,
2013-09-09 22:00:00,71.1,67.3,29.98,ENE,68,0.0,0.0,88,0.00,CLR,,0.00,WeatherDisplay:10.37,2013-09-10 02:00:00,
2013-09-09 22:05:00,71.1,67.3,29.97,ENE,68,0.0,0.0,88,0.00,CLR,,0.00,WeatherDisplay:10.37,2013-09-10 02:05:00,
2013-09-09 22:10:00,70.9,67.5,29.97,ENE,68,0.0,0.0,89,0.00,CLR,,0.00,WeatherDisplay:10.37,2013-09-10 02:10:00,
2013-09-09 22:15:00,70.7,67.0,29.97,ENE,68,0.0,0.0,88,0.00,CLR,,0.00,WeatherDisplay:10.37,2013-09-10 02:15:00,
2013-09-09 22:20:00,70.5,66.8,29.97,ENE,68,0.0,0.0,88,0.00,CLR,,0.00,WeatherDisplay:10.37,2013-09-10 02:20:00,
2013-09-09 22:25:00,70.2,66.4,29.97,ENE,68,0.0,0.0,88,0.00,CLR,,0.00,WeatherDisplay:10.37,2013-09-10 02:25:00,
2013-09-09 22:30:00,70.0,66.3,29.97,ENE,68,0.0,0.0,88,0.00,CLR,,0.00,WeatherDisplay:10.37,2013-09-10 02:30:00,
2013-09-09 22:35:00,69.6,65.9,29.98,ENE,68,0.0,0.0,88,0.00,CLR,,0.00,WeatherDisplay:10.37,2013-09-10 02:35:00,
2013-09-09 22:40:00,69.6,66.2,29.98,ENE,68,0.0,0.0,89,0.00,CLR,,0.00,WeatherDisplay:10.37,2013-09-10 02:40:00,
2013-09-09 22:45:00,69.6,66.2,29.98,ENE,68,0.0,0.0,89,0.00,CLR,,0.00,WeatherDisplay:10.37,2013-09-10 02:45:00,
2013-09-09 22:50:00,69.6,66.2,29.98,ENE,68,0.0,0.0,89,0.00,CLR,,0.00,WeatherDisplay:10.37,2013-09-10 02:50:00,
2013-09-09 22:55:00,69.4,66.1,29.98,NE,45,0.0,0.0,89,0.00,CLR,,0.00,WeatherDisplay:10.37,2013-09-10 02:55:00,
2013-09-09 23:00:00,69.4,66.4,29.99,NE,45,0.0,0.0,90,0.00,CLR,,0.00,WeatherDisplay:10.37,2013-09-10 03:00:00,
2013-09-09 23:05:00,69.4,66.4,29.99,NE,45,0.0,0.0,90,0.00,CLR,,0.00,WeatherDisplay:10.37,2013-09-10 03:05:00,
2013-09-09 23:10:00,69.1,66.0,29.99,NE,45,0.0,0.0,90,0.00,CLR,,0.00,WeatherDisplay:10.37,2013-09-10 03:10:00,
2013-09-09 23:15:00,69.1,66.0,29.99,NE,45,0.0,0.0,90,0.00,CLR,,0.00,WeatherDisplay:10.37,2013-09-10 03:15:00,
2013-09-09 23:20:00,69.1,66.0,29.99,NE,45,0.0,0.0,90,0.00,CLR,,0.00,WeatherDisplay:10.37,2013-09-10 03:20:00,
2013-09-09 23:25:00,69.1,66.0,29.99,NE,45,0.0,0.0,90,0.00,CLR,,0.00,WeatherDisplay:10.37,2013-09-10 03:25:00,
2013-09-09 23:30:00,69.1,66.0,29.99,NE,45,0.0,0.0,90,0.00,CLR,,0.00,WeatherDisplay:10.37,2013-09-10 03:30:00,
2013-09-09 23:35:00,69.1,66.0,30.00,NE,45,0.0,0.0,90,0.00,CLR,,0.00,WeatherDisplay:10.37,2013-09-10 03:35:00,
2013-09-09 23:40:00,68.9,65.8,29.99,NE,45,0.0,0.0,90,0.00,CLR,,0.00,WeatherDisplay:10.37,2013-09-10 03:40:00,
2013-09-09 23:45:00,68.9,65.8,29.99,NE,45,0.0,0.0,90,0.00,CLR,,0.00,WeatherDisplay:10.37,2013-09-10 03:45:00,
2013-09-09 23:50:00,68.7,65.7,30.00,NE,45,0.0,0.0,90,0.00,CLR,,0.00,WeatherDisplay:10.37,2013-09-10 03:50:00,
2013-09-09 23:55:00,68.7,65.7,30.00,NE,45,0.0,0.0,90,0.00,CLR,,0.00,WeatherDisplay:10.37,2013-09-10 03:55:00,